Date String (YYYY-MM-DD hh:mm:ss) UTC,Instrument flags,Ambient pressure (hPa),Sample flow (lpm),Bypass flow (lpm),Sample temperature (°C),Ambient temperature (°C),ASC tube jacket temperature (°C),LED temperature (°C),Box temperature (°C),Sample RH (%),Span deviation,Mass concentration (μg/m³),Mass concentration (μg/m³),Mass concentration (μg/m³)
DateTimeUTC,F1_M11,P_M11,Q1_M11,Q2_M11,T1_M11,T2_M11,T3_M11,T4_M11,T5_M11,U1_M11,ZSPAN_M11,X0_M11,X2_M11,X1_M11
2022-08-09 23:00:00,,0830.1,5.00,0.00,29.3,27.2,00.0,38.0,31.1,21.8,0000.0,0009.80,0005.04,0004.33
2022-08-09 23:01:00,,0830.1,5.00,0.00,29.3,27.4,00.0,38.0,31.1,22.2,0000.0,0009.68,0005.01,0004.33
2022-08-09 23:02:00,,0830.1,5.01,0.00,29.3,27.6,00.0,38.0,31.1,21.9,0000.0,0009.71,0005.00,0004.31
2022-08-09 23:03:00,,0830.1,4.99,0.00,29.3,27.8,00.0,38.0,31.2,21.7,0000.0,0009.93,0005.01,0004.30
2022-08-09 23:04:00,,0830.1,5.00,0.00,29.4,28.0,00.0,38.1,31.3,21.4,0000.0,0010.04,0004.99,0004.30
2022-08-09 23:05:00,,0830.1,5.00,0.00,29.4,28.2,00.0,38.1,31.4,21.5,0000.0,0009.79,0004.98,0004.31
2022-08-09 23:06:00,,0830.1,5.00,0.00,29.4,27.8,00.0,38.1,31.3,21.5,0000.0,0009.01,0004.93,0004.30
2022-08-09 23:07:00,,0830.1,5.00,0.00,29.4,27.3,00.0,38.0,31.2,21.3,0000.0,0009.00,0004.95,0004.30
2022-08-09 23:08:00,,0830.1,5.00,0.00,29.3,27.2,00.0,38.0,31.2,21.8,0000.0,0009.10,0004.96,0004.31
2022-08-09 23:09:00,,0830.1,5.00,0.00,29.3,27.3,00.0,38.0,31.1,21.6,0000.0,0009.10,0004.98,0004.31
2022-08-09 23:10:00,,0830.1,4.99,0.00,29.3,27.5,00.0,38.0,31.1,21.5,0000.0,0009.62,0004.97,0004.31
2022-08-09 23:11:00,,0830.0,5.01,0.00,29.3,27.7,00.0,38.0,31.2,21.8,0000.0,0009.78,0004.98,0004.31
2022-08-09 23:12:00,,0830.0,4.99,0.00,29.3,28.0,00.0,38.1,31.3,21.9,0000.0,0009.67,0004.97,0004.31
2022-08-09 23:13:00,,0830.1,4.99,0.00,29.4,28.2,00.0,38.1,31.4,21.8,0000.0,0009.58,0004.95,0004.31
2022-08-09 23:14:00,,0830.1,5.01,0.00,29.5,28.1,00.0,38.1,31.4,21.4,0000.0,0009.42,0004.95,0004.31
2022-08-09 23:15:00,,0830.1,5.00,0.00,29.4,27.6,00.0,38.0,31.3,21.3,0000.0,0009.21,0004.93,0004.31
2022-08-09 23:16:00,,0830.1,5.00,0.00,29.4,27.3,00.0,38.0,31.2,21.5,0000.0,0009.35,0004.92,0004.32
2022-08-09 23:17:00,,0830.1,5.01,0.00,29.3,27.3,00.0,38.0,31.1,21.5,0000.0,0009.61,0005.00,0004.33
2022-08-09 23:18:00,,0830.1,5.00,0.00,29.3,27.5,00.0,38.0,31.1,21.4,0000.0,0009.71,0005.05,0004.34
2022-08-09 23:19:00,,0830.1,5.00,0.00,29.3,27.7,00.0,38.0,31.1,22.0,0000.0,0009.72,0005.05,0004.33
2022-08-09 23:20:00,,0830.0,5.01,0.00,29.3,27.9,00.0,38.0,31.3,22.0,0000.0,0009.78,0005.03,0004.33
2022-08-09 23:21:00,,0830.1,5.00,0.00,29.4,28.1,00.0,38.1,31.4,21.6,0000.0,0009.76,0005.05,0004.33
2022-08-09 23:22:00,,0830.0,5.00,0.00,29.4,28.3,00.0,38.1,31.4,21.8,0000.0,0009.83,0005.10,0004.34
2022-08-09 23:23:00,,0830.1,5.00,0.00,29.5,28.3,00.0,38.1,31.4,21.9,0000.0,0010.54,0005.13,0004.34
2022-08-09 23:24:00,,0830.1,5.00,0.00,29.4,27.7,00.0,38.1,31.3,22.2,0000.0,0011.11,0005.13,0004.33
2022-08-09 23:25:00,,0830.1,5.01,0.00,29.4,27.3,00.0,38.1,31.2,22.7,0000.0,0011.43,0005.15,0004.32
2022-08-09 23:26:00,,0830.1,5.00,0.00,29.4,27.3,00.0,38.1,31.2,21.9,0000.0,0011.81,0005.17,0004.33
2022-08-09 23:27:00,,0830.1,5.00,0.00,29.3,27.5,00.0,38.1,31.1,21.9,0000.0,0011.51,0005.15,0004.33
2022-08-09 23:28:00,,0830.1,4.99,0.00,29.3,27.7,00.0,38.1,31.2,22.7,0000.0,0011.33,0005.11,0004.32
2022-08-09 23:29:00,,0830.1,5.01,0.00,29.4,27.9,00.0,38.1,31.3,22.4,0000.0,0012.08,0005.08,0004.32
2022-08-09 23:30:00,,0830.1,4.99,0.00,29.4,28.1,00.0,38.1,31.4,21.5,0000.0,0012.32,0005.10,0004.33
2022-08-09 23:31:00,,0830.1,4.99,0.00,29.5,28.3,00.0,38.1,31.5,20.9,0000.0,0012.26,0005.14,0004.34
2022-08-09 23:32:00,,0830.1,5.01,0.00,29.5,27.9,00.0,38.1,31.4,20.3,0000.0,0011.66,0005.13,0004.35
2022-08-09 23:33:00,,0830.1,4.99,0.00,29.4,27.4,00.0,38.1,31.2,20.6,0000.0,0011.73,0005.13,0004.36
2022-08-09 23:34:00,,0830.1,4.99,0.00,29.4,27.2,00.0,38.1,31.2,20.6,0000.0,0011.78,0005.15,0004.38
2022-08-09 23:35:00,,0830.1,5.01,0.00,29.4,27.3,00.0,38.1,31.2,20.6,0000.0,0011.43,0005.18,0004.39
2022-08-09 23:36:00,,0830.1,4.99,0.00,29.3,27.5,00.0,38.1,31.2,20.7,0000.0,0011.23,0005.17,0004.40
2022-08-09 23:37:00,,0830.1,5.00,0.00,29.4,27.7,00.0,38.1,31.3,20.2,0000.0,0010.90,0005.16,0004.40
2022-08-09 23:38:00,,0830.1,5.00,0.00,29.4,28.0,00.0,38.1,31.3,20.2,0000.0,0010.92,0005.17,0004.41
2022-08-09 23:39:00,,0830.1,4.99,0.00,29.4,28.2,00.0,38.1,31.4,20.7,0000.0,0011.24,0005.19,0004.41
2022-08-09 23:40:00,,0830.1,5.01,0.00,29.5,28.2,00.0,38.1,31.4,20.2,0000.0,0010.89,0005.18,0004.40
2022-08-09 23:41:00,,0830.1,5.00,0.00,29.5,27.6,00.0,38.1,31.3,19.4,0000.0,0010.44,0005.16,0004.41
2022-08-09 23:42:00,,0830.1,4.99,0.00,29.4,27.3,00.0,38.1,31.2,19.4,0000.0,0010.44,0005.14,0004.41
2022-08-09 23:43:00,,0830.1,5.01,0.00,29.4,27.3,00.0,38.1,31.2,19.6,0000.0,0010.59,0005.15,0004.41
2022-08-09 23:44:00,,0830.1,4.99,0.00,29.3,27.4,00.0,38.1,31.1,19.7,0000.0,0011.21,0005.16,0004.42
2022-08-09 23:45:00,,0830.1,4.99,0.00,29.3,27.6,00.0,38.1,31.2,19.8,0000.0,0010.69,0005.15,0004.41
2022-08-09 23:46:00,,0830.0,5.01,0.00,29.4,27.8,00.0,38.1,31.3,19.6,0000.0,0010.67,0005.14,0004.40
2022-08-09 23:47:00,,0830.1,5.00,0.00,29.4,28.0,00.0,38.1,31.4,19.5,0000.0,0010.45,0005.13,0004.41
2022-08-09 23:48:00,,0830.1,5.01,0.00,29.5,28.2,00.0,38.1,31.5,19.7,0000.0,0010.50,0005.14,0004.43
2022-08-09 23:49:00,,0830.1,5.01,0.00,29.5,27.9,00.0,38.1,31.4,19.8,0000.0,0010.80,0005.17,0004.42
2022-08-09 23:50:00,,0830.0,5.00,0.00,29.4,27.3,00.0,38.1,31.2,19.3,0000.0,0010.91,0005.16,0004.42
2022-08-09 23:51:00,,0830.1,5.00,0.00,29.4,27.2,00.0,38.1,31.2,19.5,0000.0,0010.79,0005.14,0004.44
2022-08-09 23:52:00,,0830.1,5.00,0.00,29.3,27.3,00.0,38.1,31.1,19.9,0000.0,0010.82,0005.14,0004.45
2022-08-09 23:53:00,,0830.1,4.99,0.00,29.3,27.5,00.0,38.1,31.1,20.4,0000.0,0010.83,0005.16,0004.45
2022-08-09 23:54:00,,0830.1,5.00,0.00,29.3,27.7,00.0,38.1,31.2,20.0,0000.0,0010.71,0005.15,0004.44
2022-08-09 23:55:00,,0830.1,5.00,0.00,29.4,27.9,00.0,38.1,31.3,20.8,0000.0,0010.08,0005.11,0004.43
2022-08-09 23:56:00,,0830.1,5.00,0.00,29.4,28.1,00.0,38.1,31.4,19.8,0000.0,0010.30,0005.09,0004.45
2022-08-09 23:57:00,,0830.1,5.00,0.00,29.5,28.2,00.0,38.1,31.4,19.7,0000.0,0010.93,0005.07,0004.46
2022-08-09 23:58:00,,0830.1,4.99,0.00,29.5,27.6,00.0,38.1,31.3,19.2,0000.0,0011.33,0005.08,0004.45
2022-08-09 23:59:00,,0830.1,4.99,0.00,29.4,27.2,00.0,38.1,31.2,19.3,0000.0,0011.28,0005.08,0004.45
